DW3798 Weather Reports


Display with metric or nautical units.
time (UTC)temp
F
wind
direction
speed
MPH
gust
MPH
rain 1hr
in
rain 24hr
in
rain mn
in
humidity
%
barometer
mb
20260903020503 77 189 0.0 0.0 0.00 0.00 0.00 84 1017.2
20260903020010 77 189 0.0 0.0 0.00 0.00 0.00 84 1017.2
20260903015504 77 189 0.0 0.0 0.00 0.00 0.00 83 1017.2
20260903015007 78 189 0.0 0.0 0.00 0.00 0.00 82 1017.2
20260903014520 78 189 0.0 0.0 0.00 0.00 0.00 82 1017.1
20260903014010 78 189 0.0 0.0 0.00 0.00 0.00 81 1017.1
20260903013507 79 189 0.0 0.0 0.00 0.00 0.00 81 1016.8
20260903013025 79 189 0.0 0.0 0.00 0.00 0.00 80 1017.0
20260903012509 79 189 0.0 0.0 0.00 0.00 0.00 79 1017.0
20260903012010 79 189 0.0 0.0 0.00 0.00 0.00 79 1017.0
20260903011504 80 189 0.0 0.0 0.00 0.00 0.00 78 1017.0
20260903011004 80 189 0.0 0.0 0.00 0.00 0.00 77 1016.9
20260903010503 81 189 0.0 0.0 0.00 0.00 0.00 76 1016.8
20260903010005 81 189 0.0 0.0 0.00 0.00 0.00 75 1016.8
20260903005504 82 189 0.0 0.0 0.00 0.00 0.00 75 1016.8
20260903005004 82 189 0.0 0.0 0.00 0.00 0.00 73 1016.8
20260903004522 83 189 0.0 0.0 0.00 0.00 0.00 73 1016.8
20260903004007 84 189 0.0 0.0 0.00 0.00 0.00 72 1016.8
20260903003507 84 189 0.0 0.0 0.00 0.00 0.00 71 1016.7
20260903003018 85 189 0.0 0.0 0.00 0.00 0.00 70 1016.6
20260903002509 85 189 0.0 0.0 0.00 0.00 0.00 69 1016.6
20260903002011 86 189 0.0 0.0 0.00 0.00 0.00 68 1016.6
20260903001528 86 250 0.0 0.0 0.00 0.00 0.00 66 1016.6
20260903001015 86 293 0.0 3.0 0.00 0.00 0.00 64 1016.6
20260903000503 87 198 0.0 3.0 0.00 0.00 0.00 63 1016.6
20260903000007 87 257 0.0 1.0 0.00 0.00 0.00 63 1016.6
20260902235504 87 227 0.0 1.0 0.00 0.00 0.00 63 1016.5
20260902235007 88 244 0.0 4.0 0.00 0.00 0.00 62 1016.5
20260902234511 88 267 1.0 6.0 0.00 0.00 0.00 61 1016.5
20260902234007 88 269 0.0 6.0 0.00 0.00 0.00 60 1016.5
20260902233504 89 255 1.0 5.0 0.00 0.00 0.00 59 1016.5
20260902233038 89 265 1.0 4.0 0.00 0.00 0.00 59 1016.5
20260902232510 89 238 1.0 6.0 0.00 0.00 0.00 59 1016.5
20260902232009 90 280 1.0 9.0 0.00 0.00 0.00 58 1016.5
20260902231542 90 241 3.0 9.0 0.00 0.00 0.00 57 1016.6
20260902231011 90 294 3.0 7.0 0.00 0.00 0.00 57 1016.7
20260902230514 91 241 1.0 7.0 0.00 0.00 0.00 57 1016.7
20260902230033 91 260 2.0 5.0 0.00 0.00 0.00 58 1016.6
20260902225503 91 214 1.0 3.0 0.00 0.00 0.00 57 1016.6
20260902225004 91 269 2.0 9.0 0.00 0.00 0.00 57 1016.7
20260902224511 91 271 3.0 9.0 0.00 0.00 0.00 55 1016.7
20260902224017 91 210 3.0 9.0 0.00 0.00 0.00 56 1016.7
20260902223505 91 281 4.0 8.0 0.00 0.00 0.00 55 1016.7
20260902223012 91 284 3.0 9.0 0.00 0.00 0.00 55 1016.7
20260902222508 92 240 3.0 9.0 0.00 0.00 0.00 54 1016.7
20260902222008 92 236 3.0 7.0 0.00 0.00 0.00 55 1016.7
20260902221535 92 246 2.0 9.0 0.00 0.00 0.00 54 1016.8
20260902221009 92 248 3.0 9.0 0.00 0.00 0.00 53 1016.8
20260902220514 92 252 4.0 9.0 0.00 0.00 0.00 54 1016.8
20260902220028 92 180 3.0 9.0 0.00 0.00 0.00 54 1016.8
20260902215516 92 360 4.0 10.0 0.00 0.00 0.00 55 1016.8
20260902215014 92 219 3.0 10.0 0.00 0.00 0.00 55 1016.8
20260902214515 92 217 4.0 8.0 0.00 0.00 0.00 55 1016.8
20260902214004 93 241 4.0 8.0 0.00 0.00 0.00 54 1016.9
20260902213503 93 227 1.0 7.0 0.00 0.00 0.00 56 1016.9
20260902213034 93 294 3.0 7.0 0.00 0.00 0.00 54 1016.9
20260902212505 93 234 2.0 6.0 0.00 0.00 0.00 56 1016.9
20260902212011 93 269 3.0 7.0 0.00 0.00 0.00 56 1017.0
20260902211518 92 198 2.0 7.0 0.00 0.00 0.00 55 1017.0
20260902211009 92 235 4.0 9.0 0.00 0.00 0.00 55 1017.0
20260902210511 92 234 3.0 10.0 0.00 0.00 0.00 56 1017.1
20260902210023 92 236 5.0 9.0 0.00 0.00 0.00 54 1017.1
20260902205513 93 225 4.0 9.0 0.00 0.00 0.00 55 1017.1
20260902205013 93 264 3.0 8.0 0.00 0.00 0.00 54 1017.1
20260902204530 93 262 3.0 8.0 0.00 0.00 0.00 53 1017.1
20260902204021 93 262 3.0 10.0 0.00 0.00 0.00 54 1017.2
20260902203504 93 259 5.0 10.0 0.00 0.00 0.00 53 1017.2
20260902203008 93 244 3.0 9.0 0.00 0.00 0.00 56 1017.2
20260902202504 93 232 3.0 9.0 0.00 0.00 0.00 53 1017.3
20260902202005 93 253 2.0 10.0 0.00 0.00 0.00 53 1017.3
20260902201515 94 276 2.0 10.0 0.00 0.00 0.00 51 1017.4
20260902201007 94 255 3.0 11.0 0.00 0.00 0.00 53 1017.4
20260902200510 94 300 5.0 11.0 0.00 0.00 0.00 51 1017.5
20260902200021 94 247 2.0 8.0 0.00 0.00 0.00 52 1017.5
20260902195510 94 209 1.0 7.0 0.00 0.00 0.00 51 1017.5
20260902195014 94 236 3.0 8.0 0.00 0.00 0.00 50 1017.6
20260902194540 94 263 2.0 7.0 0.00 0.00 0.00 53 1017.6
20260902194015 94 227 3.0 6.0 0.00 0.00 0.00 54 1017.6
20260902193513 94 170 1.0 9.0 0.00 0.00 0.00 53 1017.6
20260902193032 94 254 2.0 11.0 0.00 0.00 0.00 53 1017.7
20260902192503 94 273 5.0 11.0 0.00 0.00 0.00 50 1017.7
20260902192006 94 254 4.0 11.0 0.00 0.00 0.00 49 1017.8
20260902191513 94 346 2.0 9.0 0.00 0.00 0.00 52 1017.8
20260902191007 94 277 5.0 9.0 0.00 0.00 0.00 55 1017.9
20260902190507 94 248 4.0 10.0 0.00 0.00 0.00 51 1018.0
20260902190020 94 277 2.0 10.0 0.00 0.00 0.00 55 1018.0
20260902185511 94 305 2.0 11.0 0.00 0.00 0.00 55 1018.1
20260902185011 93 256 4.0 11.0 0.00 0.00 0.00 52 1018.2
20260902184524 93 283 4.0 11.0 0.00 0.00 0.00 54 1018.2
20260902184011 93 283 3.0 11.0 0.00 0.00 0.00 52 1018.2
20260902183513 94 256 4.0 11.0 0.00 0.00 0.00 53 1018.3
20260902183028 93 244 4.0 9.0 0.00 0.00 0.00 53 1018.4
20260902182516 93 253 3.0 9.0 0.00 0.00 0.00 53 1018.3
20260902182016 93 212 3.0 9.0 0.00 0.00 0.00 55 1018.3
20260902181507 93 302 2.0 9.0 0.00 0.00 0.00 54 1018.3
20260902181006 93 288 5.0 9.0 0.00 0.00 0.00 53 1018.3
20260902180504 93 168 2.0 9.0 0.00 0.00 0.00 57 1018.3
20260902180017 93 238 3.0 9.0 0.00 0.00 0.00 55 1018.4
20260902175510 93 225 3.0 9.0 0.00 0.00 0.00 57 1018.4
20260902175012 93 267 3.0 9.0 0.00 0.00 0.00 55 1018.5
20260902174525 92 200 4.0 9.0 0.00 0.00 0.00 55 1018.5
20260902174010 92 280 3.0 9.0 0.00 0.00 0.00 58 1018.6
20260902173512 92 333 4.0 11.0 0.00 0.00 0.00 57 1018.8
20260902173030 92 265 3.0 11.0 0.00 0.00 0.00 56 1018.9
20260902172515 93 303 3.0 8.0 0.00 0.00 0.00 57 1018.9
20260902172015 93 242 2.0 7.0 0.00 0.00 0.00 60 1019.1
20260902171529 92 227 1.0 6.0 0.00 0.00 0.00 60 1019.1
20260902171017 92 247 2.0 8.0 0.00 0.00 0.00 60 1019.1
20260902170521 92 268 3.0 8.0 0.00 0.00 0.00 56 1019.1
20260902170014 92 269 3.0 6.0 0.00 0.00 0.00 58 1019.1
20260902165507 92 215 2.0 7.0 0.00 0.00 0.00 58 1019.1
20260902165011 92 235 3.0 7.0 0.00 0.00 0.00 58 1019.2
20260902164529 91 251 2.0 6.0 0.00 0.00 0.00 59 1019.1
20260902164010 91 203 2.0 7.0 0.00 0.00 0.00 60 1019.2
20260902163514 91 243 3.0 7.0 0.00 0.00 0.00 59 1019.2
20260902163034 91 284 3.0 7.0 0.00 0.00 0.00 61 1019.1
20260902162521 91 227 3.0 8.0 0.00 0.00 0.00 59 1019.1
20260902162021 91 245 2.0 8.0 0.00 0.00 0.00 60 1019.0
20260902161535 91 190 2.0 6.0 0.00 0.00 0.00 61 1019.1
20260902161017 90 239 3.0 5.0 0.00 0.00 0.00 61 1019.2
20260902160520 90 263 1.0 6.0 0.00 0.00 0.00 60 1019.1
20260902160031 89 270 2.0 6.0 0.00 0.00 0.00 64 1019.1
20260902155521 89 226 2.0 7.0 0.00 0.00 0.00 62 1019.2
20260902155009 89 228 4.0 7.0 0.00 0.00 0.00 62 1019.3
20260902154520 89 243 3.0 6.0 0.00 0.00 0.00 63 1019.3
20260902154008 89 217 2.0 7.0 0.00 0.00 0.00 65 1019.2
20260902153511 88 267 2.0 7.0 0.00 0.00 0.00 63 1019.2
20260902153027 88 286 3.0 7.0 0.00 0.00 0.00 64 1019.2
20260902152511 88 273 3.0 8.0 0.00 0.00 0.00 64 1019.2
20260902152014 87 268 2.0 8.0 0.00 0.00 0.00 66 1019.2
20260902151529 87 269 3.0 8.0 0.00 0.00 0.00 65 1019.2
20260902151016 87 231 2.0 8.0 0.00 0.00 0.00 65 1019.2
20260902150514 87 268 3.0 8.0 0.00 0.00 0.00 65 1019.3
20260902150033 87 234 1.0 6.0 0.00 0.00 0.00 67 1019.4
20260902145521 86 226 2.0 6.0 0.00 0.00 0.00 67 1019.4
20260902145017 86 236 3.0 6.0 0.00 0.00 0.00 68 1019.4
20260902144533 86 262 3.0 6.0 0.00 0.00 0.00 69 1019.4
20260902144007 85 254 2.0 7.0 0.00 0.00 0.00 69 1019.4
20260902143512 85 296 2.0 7.0 0.00 0.00 0.00 69 1019.3
20260902143017 84 229 3.0 6.0 0.00 0.00 0.00 69 1019.3
20260902142509 84 246 3.0 5.0 0.00 0.00 0.00 69 1019.3
20260902142012 84 246 2.0 7.0 0.00 0.00 0.00 70 1019.4
20260902141532 84 226 4.0 7.0 0.00 0.00 0.00 71 1019.4
20260902141012 83 252 3.0 7.0 0.00 0.00 0.00 71 1019.4
20260902140515 83 232 3.0 6.0 0.00 0.00 0.00 72 1019.3
20260902140031 83 232 2.0 6.0 0.00 0.00 0.00 75 1019.3
20260902135515 82 204 1.0 4.0 0.00 0.00 0.00 76 1019.2
20260902135020 82 266 2.0 4.0 0.00 0.00 0.00 77 1019.2
20260902134534 81 242 2.0 4.0 0.00 0.00 0.00 78 1019.2
20260902134019 81 196 2.0 3.0 0.00 0.00 0.00 79 1019.2
20260902133524 81 232 2.0 3.0 0.00 0.00 0.00 79 1019.2
20260902133050 80 256 1.0 3.0 0.00 0.00 0.00 80 1019.3
20260902132517 80 242 2.0 3.0 0.00 0.00 0.00 80 1019.3
20260902132008 79 259 1.0 2.0 0.00 0.00 0.00 80 1019.3
20260902131526 79 215 0.0 3.0 0.00 0.00 0.00 81 1019.3
20260902131019 79 224 1.0 3.0 0.00 0.00 0.00 81 1019.2
20260902130514 78 162 1.0 2.0 0.00 0.00 0.00 82 1019.2
20260902130030 78 209 0.0 2.0 0.00 0.00 0.00 82 1019.2
20260902125515 78 170 1.0 4.0 0.00 0.00 0.00 83 1019.2
20260902125015 77 180 1.0 3.0 0.00 0.00 0.00 83 1019.2
20260902124530 77 259 0.0 3.0 0.00 0.00 0.00 84 1019.2
20260902124017 76 208 0.0 2.0 0.00 0.00 0.00 85 1019.1
20260902123518 76 191 0.0 2.0 0.00 0.00 0.00 85 1019.1
20260902123037 76 246 0.0 3.0 0.00 0.00 0.00 86 1019.1
20260902122516 75 277 0.0 5.0 0.00 0.00 0.00 86 1019.0
20260902122009 75 182 2.0 6.0 0.00 0.00 0.00 86 1018.9
20260902121522 75 140 1.0 6.0 0.00 0.00 0.00 87 1019.1
20260902121019 74 182 2.0 5.0 0.00 0.00 0.00 87 1019.0
20260902120511 74 175 2.0 4.0 0.00 0.00 0.00 88 1018.9
20260902120023 74 144 1.0 4.0 0.00 0.00 0.00 88 1018.9
20260902115515 73 180 1.0 4.0 0.00 0.00 0.00 88 1018.9
20260902115013 73 174 1.0 3.0 0.00 0.00 0.00 88 1018.9
20260902114539 73 167 0.0 4.0 0.00 0.00 0.00 89 1018.7
20260902114016 73 161 1.0 4.0 0.00 0.00 0.00 89 1018.7
20260902113516 73 173 0.0 5.0 0.00 0.00 0.00 89 1018.6
20260902113042 73 193 2.0 4.0 0.00 0.00 0.00 89 1018.6
20260902112516 73 160 1.0 3.0 0.00 0.00 0.00 89 1018.6
20260902112016 73 169 1.0 3.0 0.00 0.00 0.00 89 1018.6
20260902111534 72 173 2.0 3.0 0.00 0.00 0.00 89 1018.5
20260902111012 72 161 2.0 4.0 0.00 0.00 0.00 89 1018.5
20260902110512 72 160 1.0 4.0 0.00 0.00 0.00 90 1018.4
20260902110024 72 161 1.0 3.0 0.00 0.00 0.00 90 1018.4
20260902105511 72 157 0.0 3.0 0.00 0.00 0.00 90 1018.4
20260902105016 72 162 1.0 2.0 0.00 0.00 0.00 90 1018.4
20260902104530 72 186 1.0 4.0 0.00 0.00 0.00 91 1018.4
20260902104017 72 161 1.0 4.0 0.00 0.00 0.00 91 1018.4
20260902103519 72 163 2.0 4.0 0.00 0.00 0.00 92 1018.3
20260902103036 72 163 2.0 4.0 0.00 0.00 0.00 92 1018.3
20260902102518 72 160 2.0 4.0 0.00 0.00 0.00 92 1018.3
20260902102018 71 163 1.0 4.0 0.00 0.00 0.00 92 1018.3
20260902101521 71 158 1.0 3.0 0.00 0.00 0.00 92 1018.4
20260902101013 71 171 1.0 4.0 0.00 0.00 0.00 93 1018.4
20260902100509 71 150 1.0 4.0 0.00 0.00 0.00 93 1018.4
20260902100020 71 163 1.0 3.0 0.00 0.00 0.00 1018.4
20260902095508 71 169 1.0 2.0 0.00 0.00 0.00 93 1018.5
20260902095011 70 163 1.0 2.0 0.00 0.00 0.00 93 1018.5
20260902094520 70 188 0.0 0.0 0.00 0.00 0.00 92 1018.5
20260902094009 70 188 0.0 0.0 0.00 0.00 0.00 92 1018.4
20260902093510 71 188 0.0 0.0 0.00 0.00 0.00 92 1018.4
20260902093024 71 188 0.0 0.0 0.00 0.00 0.00 92 1018.4
20260902092511 71 188 0.0 0.0 0.00 0.00 0.00 92 1018.3
20260902092011 70 188 0.0 0.0 0.00 0.00 0.00 92 1018.2
20260902091513 70 188 0.0 0.0 0.00 0.00 0.00 92 1018.2
20260902091008 71 188 0.0 0.0 0.00 0.00 0.00 92 1018.2
20260902090509 71 188 0.0 0.0 0.00 0.00 0.00 92 1018.2
20260902090017 71 188 0.0 0.0 0.00 0.00 0.00 92 1018.1
20260902085511 71 188 0.0 0.0 0.00 0.00 0.00 92 1018.1
20260902085011 71 188 0.0 0.0 0.00 0.00 0.00 92 1018.1
20260902084523 71 188 0.0 0.0 0.00 0.00 0.00 92 1018.0
20260902084012 71 188 0.0 0.0 0.00 0.00 0.00 92 1018.0
20260902083510 71 188 0.0 0.0 0.00 0.00 0.00 92 1018.0
20260902083020 71 188 0.0 0.0 0.00 0.00 0.00 91 1018.0
20260902082510 71 188 0.0 0.0 0.00 0.00 0.00 91 1017.9
20260902082012 71 188 0.0 0.0 0.00 0.00 0.00 91 1017.9
20260902081525 71 188 0.0 0.0 0.00 0.00 0.00 91 1017.8
20260902081012 71 188 0.0 0.0 0.00 0.00 0.00 91 1017.8
20260902080508 71 188 0.0 0.0 0.00 0.00 0.00 91 1017.8
20260902080018 71 188 0.0 0.0 0.00 0.00 0.00 91 1017.7
20260902075507 71 188 0.0 0.0 0.00 0.00 0.00 91 1017.7
20260902075011 71 188 0.0 0.0 0.00 0.00 0.00 91 1017.6
20260902074524 71 188 0.0 0.0 0.00 0.00 0.00 91 1017.6
20260902074010 72 188 0.0 0.0 0.00 0.00 0.00 91 1017.6
20260902073508 72 188 0.0 0.0 0.00 0.00 0.00 90 1017.7
20260902073023 72 188 0.0 0.0 0.00 0.00 0.00 90 1017.6
20260902072512 72 188 0.0 0.0 0.00 0.00 0.00 90 1017.7
20260902072011 72 188 0.0 0.0 0.00 0.00 0.00 90 1017.6
20260902071507 72 188 0.0 0.0 0.00 0.00 0.00 90 1017.7
20260902071006 72 188 0.0 0.0 0.00 0.00 0.00 90 1017.6
20260902070505 72 188 0.0 0.0 0.00 0.00 0.00 90 1017.6
20260902070013 72 188 0.0 0.0 0.00 0.00 0.00 90 1017.7
20260902065510 72 188 0.0 0.0 0.00 0.00 0.00 90 1017.7
20260902065012 72 188 0.0 0.0 0.00 0.00 0.00 90 1017.6
20260902064522 72 188 0.0 0.0 0.00 0.00 0.00 90 1017.6
20260902064002 72 188 0.0 0.0 0.00 0.00 0.00 90 1017.7
20260902063502 72 188 0.0 0.0 0.00 0.00 0.00 90 1017.7
20260902063003 72 188 0.0 0.0 0.00 0.00 0.00 90 1017.7
20260902062503 72 188 0.0 0.0 0.00 0.00 0.00 89 1017.7
20260902062003 72 188 0.0 0.0 0.00 0.00 0.00 89 1017.8
20260902061505 73 188 0.0 0.0 0.00 0.00 0.00 89 1017.9
20260902061007 73 188 0.0 0.0 0.00 0.00 0.00 89 1017.9
20260902060504 73 188 0.0 0.0 0.00 0.00 0.00 89 1017.8
20260902060012 73 188 0.0 0.0 0.00 0.00 0.00 89 1017.8
20260902055511 73 188 0.0 0.0 0.00 0.00 0.00 89 1017.9
20260902055008 73 188 0.0 0.0 0.00 0.00 0.00 89 1017.9
20260902054522 73 188 0.0 0.0 0.00 0.00 0.00 89 1017.9
20260902054010 73 188 0.0 0.0 0.00 0.00 0.00 89 1017.9
20260902053513 73 188 0.0 0.0 0.00 0.00 0.00 89 1017.9
20260902053025 73 173 0.0 0.0 0.00 0.00 0.00 89 1017.9
20260902052505 73 173 0.0 0.0 0.00 0.00 0.00 89 1017.9
20260902052002 73 173 0.0 0.0 0.00 0.00 0.00 89 1017.9
20260902051505 73 173 0.0 0.0 0.00 0.00 0.00 89 1017.8
20260902051010 73 173 0.0 0.0 0.00 0.00 0.00 89 1017.8
20260902050504 73 173 0.0 0.0 0.00 0.00 0.00 89 1017.8
20260902050009 73 173 0.0 0.0 0.00 0.00 0.00 89 1017.9
20260902045504 73 173 0.0 0.0 0.00 0.00 0.00 88 1017.9
20260902045007 73 173 0.0 0.0 0.00 0.00 0.00 88 1017.9
20260902044524 73 173 0.0 0.0 0.00 0.00 0.00 88 1017.9
20260902044011 74 173 0.0 0.0 0.00 0.00 0.00 88 1017.9
20260902043507 74 173 0.0 0.0 0.00 0.00 0.00 88 1017.9
20260902043023 74 173 0.0 0.0 0.00 0.00 0.00 88 1017.9
20260902042511 74 173 0.0 0.0 0.00 0.00 0.00 88 1018.0
20260902042016 74 173 0.0 0.0 0.00 0.00 0.00 88 1018.0
20260902041852 74 173 0.0 0.0 0.00 0.00 0.00 88 1018.0
20260902041846 74 173 0.0 0.0 0.00 0.00 0.00 88 1018.0
20260902041843 74 173 0.0 0.0 0.00 0.00 0.00 88 1018.0
20260902041841 75 173 0.0 0.0 0.00 0.00 0.00 87 1017.9
20260902032021 75 173 0.0 0.0 0.00 0.00 0.00 87 1017.9
20260902031535 75 173 0.0 0.0 0.00 0.00 0.00 87 1017.9
20260902031015 75 173 0.0 0.0 0.00 0.00 0.00 87 1017.9
20260902030516 75 173 0.0 0.0 0.00 0.00 0.00 87 1017.9
20260902030006 75 173 0.0 1.0 0.00 0.00 0.00 87 1017.9
20260902025504 75 162 0.0 1.0 0.00 0.00 0.00 87 1017.9
20260902025005 75 187 0.0 0.0 0.00 0.00 0.00 87 1017.9
20260902024509 75 187 0.0 0.0 0.00 0.00 0.00 87 1017.9
20260902024005 75 187 0.0 0.0 0.00 0.00 0.00 87 1018.0
20260902023515 75 187 0.0 0.0 0.00 0.00 0.00 87 1017.9
20260902023028 75 187 0.0 0.0 0.00 0.00 0.00 87 1018.0
20260902022508 75 241 0.0 0.0 0.00 0.00 0.00 87 1018.0
20260902022019 75 162 0.0 0.0 0.00 0.00 0.00 86 1017.9
20260902021523 75 162 0.0 0.0 0.00 0.00 0.00 86 1017.9
20260902021012 76 162 0.0 0.0 0.00 0.00 0.00 86 1017.8